STARLINK-35360, 66444

Orbit data source: Space-Track

STARLINK-35360, 66444 is a payload satellite owned by SpaceX/Seattle (US) in LEO that was launched on Tue, 11 Nov 2025 UTC via an FALCON 9 launch vehicle from the Air Force Eastern Test Range (AFETR). Payload-class satellites include a variety of spacecraft equipped with specific instruments for various scientific and technological missions. These include communications satellites like Starlink; space stations such as the ISS; scientific satellites like the Hubble; Earth observation satellites from companies like Planet Labs, Umbra, and HawkEye 360; GPS; miniature CubeSats for education and research; and military/defense satellites.

Loading next visibility...
Identifier
66444, 2025-259Y
Orbit
LEO
Country
Flag of USUS
Related business
Manufacturer
SpaceX/Seattle
Mission
Operational Commercial Communications
Bus & Motor
STARLINK V2MO, Unknown motor
Mass
575 kg wet, ~530 kg dry
Launch date (UTC)
2025-11-11 (7 months ago)
Launch vehicle
FALCON 9
Launch site
Air Force Eastern Test Range (AFETR)
Object type
Payload
Rocket body
Debris
Shape & HBR
Box + 2 Pan, 17.7 m
Radar Cross Section
36.964 m², Large (>1 m²)

Expand to show TLE details & history
Last TLE update: 15 hours ago

TLE from 15 hours ago
0 STARLINK-35360
1 66444U 25259Y   26150.08529733  .00025781  00000-0  94249-3 0  9992
2 66444  42.9976 174.3151 0001224 262.7073  97.3639 15.27601268 31943
Epoch: 2026-05-30T02:02Z
TLE epoch observation values (Epoch: 2026-05-30T02:02:49.689Z)
Latitude
-0.00004°
Longitude
-103.99837°
Altitude
482.868 km
Speed
7.626 km/s
True Right ascension
11h 37m 15s
True Declination
0° 00' 00"
Sunlit
Object was in daylight at epoch
Visualization orbit readout
Latitude
Unknown
Longitude
Unknown
Altitude
Unknown
Speed
Unknown
Apparent Right ascension
Unknown
Apparent Declination
Unknown
Sunlit
N/A
Visualization observer readout
Local Sidereal Time
02:07:24
Azimuth
Unknown
Elevation
Unknown
Doppler factor
Unknown
Orbital elements
Apogee altitude
485.771 km
Perigee altitude
484.091 km
Semi-major axis
6,863.068 km
Eccentricity
0.00012
Inclination
42.9976°
RAAN
174.3151°
Arg. of periapsis
262.7073°
True anomaly
97.37781°
Mean anomaly
97.3639°
Eccentric anomaly
97.37086°
Mean motion
3.81738 °/min
Orbital period
94.31 mins
BSTAR
0.00094249
Loading maneuver chart data...
Computing Atmospheric mass density...
Loading historical data...
Loading historical data...
Loading historical data...
Loading historical data...
Loading historical data...
Loading historical data...
Loading historical data...

Documentation

Showing up to 5 results
|